Location: Delia
(51.6321°N, 112.3740°W)
Time: 01:31:10
(UTC+00:00)

BlueWalker 3 - Visible Passes

Search period start: 21 February 2024 00:00
Search period end: 02 March 2024 00:00
Orbit: 486 x 500 km, 53.2° (Epoch: 20 February)

Date Brightness Start Highest point End Pass type
(mag) Time Alt. Az. Time Alt. Az. Time Alt. Az.
21 Feb 1.8 02:33:37 10° WSW 02:37:24 78° SSE 02:38:39 40° E visible
21 Feb 4.6 04:12:03 10° W 04:13:08 18° W 04:13:08 18° W visible
22 Feb 1.8 02:09:54 10° WSW 02:13:41 77° SSE 02:16:00 22° ENE visible
22 Feb 3.6 03:48:19 10° W 03:50:29 32° WNW 03:50:29 32° WNW visible
23 Feb 1.9 01:46:10 10° WSW 01:49:57 75° SSE 01:53:17 13° ENE visible
23 Feb 2.4 03:24:35 10° W 03:27:46 56° NW 03:27:46 56° NW visible
24 Feb 1.9 03:00:49 10° W 03:04:35 67° N 03:05:02 60° NE visible
24 Feb 5.1 04:39:13 10° WNW 04:39:31 12° WNW 04:39:31 12° WNW visible
25 Feb 2.0 02:37:03 10° W 02:40:48 67° N 02:42:15 35° ENE visible
25 Feb 4.4 04:15:27 10° WNW 04:16:44 20° WNW 04:16:44 20° WNW visible
26 Feb 2.0 02:13:15 10° W 02:17:02 67° N 02:19:27 21° ENE visible
26 Feb 3.4 03:51:40 10° WNW 03:53:56 35° WNW 03:53:56 35° WNW visible
27 Feb 2.0 01:49:26 10° W 01:53:13 67° N 01:56:39 12° E visible
27 Feb 2.2 03:27:51 10° WNW 03:31:08 65° W 03:31:08 65° W visible
28 Feb 1.7 03:04:02 10° WNW 03:07:50 86° SSW 03:08:20 65° ESE visible
28 Feb 5.1 04:42:35 10° W 04:42:49 11° W 04:42:49 11° W visible
29 Feb 1.8 02:40:12 10° WNW 02:44:00 87° SSW 02:45:33 34° ESE visible
29 Feb 4.5 04:18:44 10° W 04:20:02 18° W 04:20:02 18° W visible
01 Mar 1.8 02:16:21 10° WNW 02:20:09 88° SSW 02:22:48 19° ESE visible
01 Mar 3.8 03:54:52 10° W 03:57:17 25° WSW 03:57:17 25° WSW visible
